Location: Cerda�ola
(41.4919°N, 2.1403°E)
Time: 04:08:46
(UTC+00:00)

Lacrosse 4 Rocket - Pass Details

Date: 18 August 2020
Orbit: 544 x 615 km, 68.0° (Epoch: 21 September)

Event Time Altitude Azimuth Distance (km) Brightness Sun altitude
Exits shadow 20:10:17 27° 115° (ESE) 1,132 2.3 -15.1°
Maximum altitude 20:10:28 27° 110° (ESE) 1,128 2.3 -15.1°
Drops below altitude 10° 20:14:01 10° 52° (NE) 1,875 3.8 -15.7°
Sets 20:16:28 0° 40° (NE) 2,764 4.8 -16.0°
